STARLING 1

Satellite information

Favourite Embed

Satellite Type and Status

PAYLOADIN ORBIT

Key statistics

Satellite STARLING 1 at a glance.

Uptime

780

Days in orbit

Revolutions

≈ 15.0

Per day

Orbit

SSO

Sun Synchronous Orbit

Inclination

99.5

Latest

Satellite identification and parameters

Extended collection of information and parameters for STARLING 1.

Object identification

Identified? True

Debris? False

Object name: STARLING 1

International designator: 2023-100C

Object number (NORAD): 57388

Object ID (CCSDS): 57388

Country: UNITED STATES OF AMERICA (US)

Current information (Y/N): Y

RCS size: MEDIUM

Orbital parameters

Period: 95.725 minutes

Inclination: 99.4886 deg

SMA: 6931.764 km

Apoapsis: 558.542 km

Periapsis: 548.715 km

RAAN: 194.6506 deg

Eccentricy: 0.00070882

Argument of periapsis: 112.2249 deg

Mean anomaly: 247.9724 deg

Mean motion: 15.0430933 rev/day

Mean motion (dot): 0.00006331 rev/day2

B* drag term: 0.00046022357 1/REarth

Two-line elements (TLE)

Creation date: Sept. 4, 2025, 10:13 a.m.

Reference frame: TEME

Reference center: EARTH

Epoch: Sept. 4, 2025, 7:21 a.m. UTC

TLE line 0: 0 STARLING 1

TLE line 1: 1 57388U 23100C 25247.30648148 .00006331 00000-0 46022-3 0 9991

TLE line 2: 2 57388 99.4886 194.6506 0007088 112.2249 247.9724 15.04309330116889

Live tracking on map

Real-time ground track for satellite STARLING 1.

In-orbit conjunctions

There are no conjunctions computed for STARLING 1, at the moment. Check back to stay up to date, as we update our databases every day.

Go to all conjunctions

Associated space launch

The "Baby Come Back" mission includes NASA's Starling project, which consists of four CubeSats designed to test technologies for future swarm missions. Telesat contributes the LEO 3 demonstration satellite, ensuring continuity for customers and ecosystem vendor testing. Additionally, two 3U satellites carrying GNSS-RO payloads from SpinGlobal will replenish their constellation of over 100 multipurpose satellites.

STARLING 1 was lifted into orbit during the mission ‘Electron | Baby Come Back (Rideshare)’, on board a Electron space rocket.

The launch took place on July 18, 2023, 1:27 a.m. from Rocket Lab Launch Complex 1B.

For more information about the launch, click the button.

Launch to space Electron | Baby Come Back (Rideshare)
Electron | Baby Come Back (Rideshare)

Agency: N/A

Status: Launch Successful

Launch date: July 18, 2023, 1:27 a.m. UTC

Rocket: Electron

Launch pad: Rocket Lab Launch Complex 1B

Location: Rocket Lab Launch Complex 1, Mahia Peninsula, New Zealand

...

Latest news about this satellite

News about space launch
NASA boosts science objectives for Starling swarm

NASA is expanding testing of distributed autonomy for its first satellite swarm, Starling. The post NASA boosts science objectives for Starling swarm appeared first on SpaceNews.

News about space launch
Launch Roundup: Rocket Lab conducts Electron reuse attempt, SpaceX flies two Starlink v2 missions

The week of July 16 through July 23 saw four more launches take place around the world, potentially increasing the orbital launch count to 108 so far in 2023. This included Rocket Lab’s launch of the “Baby Come Back” mission (which featured a first stage ...

News about space launch
Rocket Lab launches 7 satellites, recovers first stage booster

The ‘Baby Come Back’ mission successfully lifted off from Launch Complex 1B on the Mahia Peninsula in New Zealand at 01:27 UTC,...


Newsletter sign-up

Weekly statistics, charts and insights to help you stay on top of the space industry.